Weather History for Chippewa, MI

Change the Weather History Date:

Monday, October 28, 2013

  Actual Average Record
Temperature  
Mean Temperature 30 °F -  
Max Temperature 37 °F 50 °F 67 °F (1989)
Min Temperature 24 °F 29 °F 19 °F (1980)
Degree Days  
Heating Degree Days 34    
Moisture  
Dew Point 26 °F    
Average Humidity 81    
Maximum Humidity 100    
Minimum Humidity 56    
Precipitation  
Precipitation 0.00 in - - ()
Sea Level Pressure  
Sea Level Pressure 30.33 in    
Wind  
Wind Speed 9 mph (NNW)    
Max Wind Speed 15 mph    
Max Gust Speed 20 mph    
Visibility 10 miles    
Events      
Averages and records for this station are not official NWS values.
T = Trace of Precipitation, MM = Missing Value Source: NWS Daily Summary

Daily Weather History Graph

Daily Weather History Graph

Search for Another Location

Airport:

Trip Planner

Search our weather history database for the weather conditions in past years. The results will help you decide how hot, cold, wet, or windy it might be!

Date:

Astronomy

Oct. 28, 2013 Rise Set
Actual Time 8:13 AM EDT 6:29 PM EDT
Civil Twilight 7:42 AM EDT 7:00 PM EDT
Nautical Twilight 7:07 AM EDT 7:35 PM EDT
Astronomical Twilight 6:32 AM EDT 8:10 PM EDT
Moon 1:46 AM EDT (10/28) 3:28 PM EDT (10/28)
Length of Visible Light 11h 17m
Length of Day
10h 15m
Waning Crescent, 34% of the Moon is Illuminated
Oct 28
Waning Crescent
Nov 3
New
Nov 10
First Quarter
Nov 17
Full
Nov 25
Last Quarter

Hourly Weather History & Observations

Time (EDT) Temp. Windchill Dew Point Humidity Pressure Visibility Wind Dir Wind Speed Gust Speed Precip Events Conditions
12:15 AM 37.4 °F 29.8 °F 35.6 °F 93% 29.97 in 10.0 mi WNW 11.5 mph - N/A   Overcast
12:35 AM 37.4 °F 29.8 °F 37.4 °F 100% 29.99 in 10.0 mi NNW 11.5 mph 16.1 mph N/A   Overcast
12:55 AM 37.4 °F 30.3 °F 35.6 °F 93% 30.00 in 10.0 mi NNW 10.4 mph - N/A   Mostly Cloudy
1:15 AM 37.4 °F 29.8 °F 35.6 °F 93% 30.02 in 10.0 mi NNW 11.5 mph - N/A   Mostly Cloudy
1:35 AM 35.6 °F 27.5 °F 33.8 °F 93% 30.03 in 10.0 mi NNW 11.5 mph - N/A   Scattered Clouds
1:55 AM 35.6 °F 28.0 °F 33.8 °F 93% 30.05 in 10.0 mi NNW 10.4 mph - N/A   Mostly Cloudy
2:15 AM 35.6 °F 28.6 °F 33.8 °F 93% 30.07 in 10.0 mi NNW 9.2 mph - N/A   Overcast
2:35 AM 35.6 °F 28.0 °F 33.8 °F 93% 30.08 in 10.0 mi NNW 10.4 mph - N/A   Mostly Cloudy
2:55 AM 35.6 °F 27.1 °F 32.0 °F 87% 30.10 in 10.0 mi North 12.7 mph 19.6 mph N/A   Scattered Clouds
3:15 AM 33.8 °F 23.9 °F 30.2 °F 87% 30.12 in 10.0 mi NNW 15.0 mph - N/A   Partly Cloudy
3:35 AM 33.8 °F 25.3 °F 28.4 °F 81% 30.15 in 10.0 mi North 11.5 mph 16.1 mph N/A   Mostly Cloudy
3:55 AM 33.8 °F 26.4 °F 28.4 °F 81% 30.16 in 10.0 mi North 9.2 mph - N/A   Mostly Cloudy
4:15 AM 32.0 °F 24.2 °F 28.4 °F 87% 30.17 in 10.0 mi NNW 9.2 mph - N/A   Partly Cloudy
4:35 AM 30.2 °F 23.4 °F 28.4 °F 93% 30.18 in 10.0 mi North 6.9 mph - N/A   Clear
4:55 AM 30.2 °F 22.6 °F 28.4 °F 93% 30.20 in 10.0 mi North 8.1 mph - N/A   Clear
5:15 AM 30.2 °F 23.4 °F 28.4 °F 93% 30.21 in 10.0 mi North 6.9 mph - N/A   Clear
5:35 AM 30.2 °F 21.3 °F 26.6 °F 86% 30.22 in 10.0 mi NNE 10.4 mph - N/A   Clear
5:55 AM 30.2 °F 21.3 °F 26.6 °F 86% 30.24 in 10.0 mi NNE 10.4 mph - N/A   Clear
6:15 AM 28.4 °F 18.0 °F 26.6 °F 93% 30.25 in 10.0 mi North 12.7 mph - N/A   Clear
6:35 AM 28.4 °F 18.0 °F 24.8 °F 86% 30.26 in 10.0 mi North 12.7 mph - N/A   Clear
6:55 AM 28.4 °F 18.5 °F 24.8 °F 86% 30.28 in 10.0 mi North 11.5 mph 18.4 mph N/A   Clear
7:15 AM 26.6 °F 15.7 °F 24.8 °F 93% 30.29 in 10.0 mi North 12.7 mph - N/A   Partly Cloudy
7:35 AM 26.6 °F 16.8 °F 24.8 °F 93% 30.30 in 10.0 mi North 10.4 mph - N/A   Scattered Clouds
7:55 AM 26.6 °F 16.8 °F 24.8 °F 93% 30.32 in 10.0 mi North 10.4 mph - N/A   Mostly Cloudy
8:15 AM 26.6 °F 18.2 °F 24.8 °F 93% 30.32 in 10.0 mi North 8.1 mph - N/A   Mostly Cloudy
8:35 AM 26.6 °F 19.1 °F 24.8 °F 93% 30.34 in 10.0 mi NNE 6.9 mph - N/A   Mostly Cloudy
8:55 AM 26.6 °F 20.0 °F 24.8 °F 93% 30.36 in 10.0 mi North 5.8 mph - N/A   Mostly Cloudy
9:15 AM 26.6 °F 20.0 °F 23.0 °F 86% 30.38 in 10.0 mi North 5.8 mph - N/A   Mostly Cloudy
9:35 AM 28.4 °F 21.2 °F 23.0 °F 80% 30.38 in 10.0 mi NNE 6.9 mph - N/A   Partly Cloudy
9:55 AM 28.4 °F 20.4 °F 23.0 °F 80% 30.38 in 10.0 mi North 8.1 mph - N/A   Clear
10:15 AM 28.4 °F 22.2 °F 23.0 °F 80% 30.39 in 10.0 mi NNE 5.8 mph - N/A   Clear
10:35 AM 28.4 °F 20.4 °F 23.0 °F 80% 30.40 in 10.0 mi North 8.1 mph - N/A   Clear
10:55 AM 28.4 °F 20.4 °F 23.0 °F 80% 30.41 in 10.0 mi North 8.1 mph - N/A   Partly Cloudy
11:15 AM 30.2 °F 26.7 °F 23.0 °F 75% 30.42 in 10.0 mi NNW 3.5 mph - N/A   Partly Cloudy
11:35 AM 30.2 °F 23.4 °F 23.0 °F 75% 30.42 in 10.0 mi North 6.9 mph - N/A   Partly Cloudy
11:55 AM 32.0 °F 24.8 °F 24.8 °F 75% 30.42 in 10.0 mi North 8.1 mph - N/A   Clear
12:15 PM 32.0 °F 24.2 °F 23.0 °F 69% 30.43 in 10.0 mi NNW 9.2 mph - N/A   Clear
12:35 PM 32.0 °F 27.5 °F 21.2 °F 64% 30.43 in 10.0 mi NE 4.6 mph - N/A   Clear
12:55 PM 33.8 °F 28.6 °F 21.2 °F 60% 30.44 in 10.0 mi North 5.8 mph - N/A   Clear
1:15 PM 33.8 °F 27.7 °F 21.2 °F 60% 30.43 in 10.0 mi NW 6.9 mph - N/A   Clear
1:35 PM 33.8 °F 27.7 °F 21.2 °F 60% 30.43 in 10.0 mi NNW 6.9 mph - N/A   Clear
1:55 PM 35.6 °F 28.0 °F 23.0 °F 60% 30.43 in 10.0 mi NW 10.4 mph - N/A   Clear
2:15 PM 33.8 °F 27.7 °F 23.0 °F 65% 30.43 in 10.0 mi North 6.9 mph - N/A   Clear
2:35 PM 35.6 °F 29.2 °F 23.0 °F 60% 30.43 in 10.0 mi NW 8.1 mph - N/A   Clear
2:55 PM 35.6 °F 28.6 °F 21.2 °F 56% 30.42 in 10.0 mi NNW 9.2 mph - N/A   Clear
3:15 PM 35.6 °F 29.2 °F 23.0 °F 60% 30.43 in 10.0 mi NNW 8.1 mph - N/A   Clear
3:35 PM 35.6 °F 28.0 °F 21.2 °F 56% 30.42 in 10.0 mi NNW 10.4 mph - N/A   Clear
3:55 PM 35.6 °F 29.2 °F 21.2 °F 56% 30.43 in 10.0 mi NNW 8.1 mph - N/A   Clear
4:15 PM 35.6 °F 28.6 °F 23.0 °F 60% 30.43 in 10.0 mi NNW 9.2 mph - N/A   Clear
4:35 PM 33.8 °F 25.3 °F 24.8 °F 70% 30.43 in 10.0 mi NW 11.5 mph - N/A   Clear
4:55 PM 33.8 °F 25.8 °F 24.8 °F 70% 30.43 in 10.0 mi NW 10.4 mph - N/A   Clear
5:15 PM 33.8 °F 25.3 °F 24.8 °F 70% 30.43 in 10.0 mi NNW 11.5 mph - N/A   Clear
5:35 PM 33.8 °F 26.4 °F 24.8 °F 70% 30.43 in 10.0 mi NNW 9.2 mph - N/A   Clear
5:55 PM 33.8 °F 27.7 °F 24.8 °F 70% 30.43 in 10.0 mi NNW 6.9 mph - N/A   Clear
6:15 PM 32.0 °F 25.6 °F 24.8 °F 75% 30.43 in 10.0 mi NW 6.9 mph - N/A   Scattered Clouds
6:35 PM 30.2 °F 22.6 °F 24.8 °F 80% 30.44 in 10.0 mi NW 8.1 mph - N/A   Partly Cloudy
6:55 PM 30.2 °F 24.3 °F 24.8 °F 80% 30.44 in 10.0 mi NW 5.8 mph - N/A   Clear
7:15 PM 30.2 °F 22.6 °F 24.8 °F 80% 30.44 in 10.0 mi NW 8.1 mph - N/A   Clear
7:35 PM 30.2 °F 24.3 °F 24.8 °F 80% 30.45 in 10.0 mi WNW 5.8 mph - N/A   Clear
7:55 PM 28.4 °F 24.6 °F 24.8 °F 86% 30.45 in 10.0 mi WNW 3.5 mph - N/A   Clear
8:15 PM 28.4 °F - 24.8 °F 86% 30.45 in 10.0 mi Calm Calm - N/A   Clear
8:35 PM 28.4 °F - 24.8 °F 86% 30.45 in 10.0 mi Calm Calm - N/A   Mostly Cloudy
8:55 PM 28.4 °F 24.6 °F 24.8 °F 86% 30.45 in 10.0 mi West 3.5 mph - N/A   Mostly Cloudy
9:15 PM 28.4 °F 23.3 °F 24.8 °F 86% 30.45 in 10.0 mi WSW 4.6 mph - N/A   Mostly Cloudy
9:35 PM 28.4 °F 23.3 °F 24.8 °F 86% 30.45 in 10.0 mi West 4.6 mph - N/A   Overcast
9:55 PM 28.4 °F 23.3 °F 24.8 °F 86% 30.45 in 10.0 mi West 4.6 mph - N/A   Overcast
10:15 PM 26.6 °F 21.2 °F 24.8 °F 93% 30.45 in 10.0 mi West 4.6 mph - N/A   Mostly Cloudy
10:35 PM 26.6 °F 22.6 °F 24.8 °F 93% 30.46 in 10.0 mi West 3.5 mph - N/A   Scattered Clouds
10:55 PM 26.6 °F - 24.8 °F 93% 30.46 in 10.0 mi Calm Calm - N/A   Overcast
11:15 PM 26.6 °F - 24.8 °F 93% 30.46 in 10.0 mi Calm Calm - N/A   Scattered Clouds
11:35 PM 24.8 °F - 24.8 °F 100% 30.46 in 10.0 mi Calm Calm - N/A   Mostly Cloudy
11:55 PM 26.6 °F - 24.8 °F 93% 30.46 in 10.0 mi Calm Calm - N/A   Overcast